Location: Ajisawe
(8.4333°N, 4.3833°E)
Time: 02:00:15
(UTC+00:00)

Courier 1B Rocket - Pass Details

Date: 26 April 2021
Orbit: 920 x 1202 km, 28.3° (Epoch: 13 May)

Event Time Altitude Azimuth Distance (km) Brightness Sun altitude
Rises 22:13:54 0° 307° (NW) 3,762 8.5 -59.1°
Enters shadow 22:14:27 - 308° (NW) 3,576 8.4 -59.2°
Reaches altitude 10° 22:16:38 10° 313° (NW) 2,852 - -59.6°
Maximum altitude 22:23:23 49° 26° (NNE) 1,396 - -60.7°
Drops below altitude 10° 22:30:36 10° 99° (E) 3,048 - -61.8°
Sets 22:33:36 0° 105° (ESE) 4,041 - -62.3°
